ASTRA 1KR

Last updated on Wed Jul 16 2025 00:02:45 GMT+0000 (Coordinated Universal Time)

1 29055U 06012A 25196.49108353 .00000128 00000+0 00000+0 0 9995 2 29055 0.0669 280.0071 0002223 258.6954 310.8884 1.00274790 42323
UTC large
Height (km)
Speed (km/s)
/
Latitude / Longitude
Inclination (degrees)
Orbital Period (minutes)
Azimuth
Elevation
Range (km)
Doppler Factor

Next 0 passes for location: London (51.5072 / 0.1276)

Sorry there are no passes over London.